Weather History for Guatemala Aeropuertola Aurora, Guatemala

Change the Weather History Date:

Wednesday, July 10, 2013

  Actual Average Record
Temperature  
Mean Temperature 68 °F -  
Max Temperature 76 °F 74 °F - ()
Min Temperature 60 °F 60 °F - ()
Cooling Degree Days 3    
Growing Degree Days 18 (Base 50)    
Moisture  
Dew Point 59 °F    
Average Humidity 74    
Maximum Humidity 94    
Minimum Humidity 50    
Precipitation  
Precipitation 0.00 in - - ()
Sea Level Pressure  
Sea Level Pressure 30.27 in    
Wind  
Wind Speed 9 mph ()    
Max Wind Speed 18 mph    
Max Gust Speed -    
Visibility 6.2 miles    
Events Rain    
T = Trace of Precipitation, MM = Missing Value Source: Averaged Metar Reports

Daily Weather History Graph

Daily Weather History Graph

Search for Another Location

Airport:

Trip Planner

Search our weather history database for the weather conditions in past years. The results will help you decide how hot, cold, wet, or windy it might be!

Date:

Astronomy

Jul. 10, 2013 Rise Set
Actual Time 5:39 AM CST 6:35 PM CST
Civil Twilight 5:16 AM CST 6:58 PM CST
Nautical Twilight 4:48 AM CST 7:26 PM CST
Astronomical Twilight 4:20 AM CST 7:54 PM CST
Moon 7:32 AM CST (7/10) 8:18 PM CST (7/10)
Length of Visible Light 13h 42m
Length of Day
12h 56m
Waxing Crescent, 5% of the Moon is Illuminated
Jul 10
Waxing Crescent
Jul 15
First Quarter
Jul 22
Full
Jul 29
Last Quarter
Aug 6
New

Hourly Weather History & Observations

Time (CST) Temp. Dew Point Humidity Pressure Visibility Wind Dir Wind Speed Gust Speed Precip Events Conditions
12:00 AM 62.6 °F 59.0 °F 88% 30.36 in - North 9.2 mph - N/A   Clear
1:00 AM 60.8 °F 59.0 °F 94% 30.36 in - North 9.2 mph - N/A   Clear
2:00 AM 60.8 °F 59.0 °F 94% 30.33 in 6.2 mi North 9.2 mph - N/A   Scattered Clouds
3:00 AM 60.8 °F 57.2 °F 88% 30.33 in 6.2 mi North 6.9 mph - N/A   Partly Cloudy
4:00 AM 60.8 °F 57.2 °F 88% 30.30 in - North 6.9 mph - N/A   Clear
5:00 AM 60.8 °F 57.2 °F 88% 30.30 in - North 6.9 mph - N/A   Clear
6:00 AM 62 °F 59 °F 85% 29.99 in 25 mi North 4.6 mph - -   Scattered Clouds
6:00 AM 60.8 °F 59.0 °F 94% 30.30 in 6.2 mi North 4.6 mph - N/A   Scattered Clouds
7:00 AM 64.4 °F 57.2 °F 77% 30.30 in - North 9.2 mph - N/A   Clear
8:00 AM 66.2 °F 59.0 °F 78% 30.33 in - NNE 11.5 mph - N/A   Clear
9:00 AM 68.0 °F 57.2 °F 68% 30.33 in - NNE 16.1 mph - N/A   Clear
10:00 AM 71.6 °F 59.0 °F 64% 30.33 in 6.2 mi North 16.1 mph - N/A   Mostly Cloudy
11:00 AM 71.6 °F 57.2 °F 60% 30.33 in 6.2 mi North 13.8 mph - N/A   Mostly Cloudy
12:00 PM 73 °F 58 °F 50% 30.00 in 25 mi North 18.4 mph - -   Overcast
12:00 PM 73.4 °F 59.0 °F 61% 30.33 in 6.2 mi North 18.4 mph - N/A   Mostly Cloudy
1:00 PM 73.4 °F 57.2 °F 57% 30.30 in 6.2 mi NNE 13.8 mph - N/A   Mostly Cloudy
2:00 PM 73.4 °F 57.2 °F 57% 30.27 in 6.2 mi NNE 11.5 mph - N/A   Mostly Cloudy
3:00 PM 75.2 °F 59.0 °F 57% 30.27 in 6.2 mi NNE 9.2 mph - N/A   Scattered Clouds
4:00 PM 73.4 °F 60.8 °F 65% 30.24 in 6.2 mi NNE 11.5 mph - N/A   Mostly Cloudy
5:00 PM 71.6 °F 59.0 °F 64% 30.24 in 6.2 mi NNE 9.2 mph - N/A   Mostly Cloudy
6:00 PM 71 °F 60 °F 60% 29.93 in 25 mi North 9.2 mph - - Rain Light Drizzle
6:00 PM 69.8 °F 60.8 °F 73% 30.24 in 6.2 mi North 9.2 mph - N/A   Light Drizzle
7:00 PM 68.0 °F 59.0 °F 73% 30.27 in 6.2 mi North 9.2 mph - N/A   Overcast
7:15 PM - - N/A% - 6.2 mi North 11.5 mph - N/A   Overcast
8:00 PM 68.0 °F 59.0 °F 73% 30.27 in 6.2 mi North 11.5 mph - N/A   Scattered Clouds
9:00 PM 66.2 °F 60.8 °F 83% 30.30 in 6.2 mi North 13.8 mph - N/A   Scattered Clouds
10:00 PM 66.2 °F 60.8 °F 83% 30.33 in 6.2 mi North 16.1 mph - N/A   Scattered Clouds
11:00 PM 64.4 °F 60.8 °F 88% 30.33 in 6.2 mi North 13.8 mph - N/A   Scattered Clouds